Location: Azenweiler
(47.8027°N, 9.4096°E)
Time: 02:12:18
(UTC+00:00)

Cosmos 2360 Rocket - Pass Details

Date: 10 December 2025
Orbit: 835 x 842 km, 71.0° (Epoch: 24 January)

Event Time Altitude Azimuth Distance (km) Brightness Sun altitude
Exits shadow 05:50:56 10° 322° (NW) 2,463 4.1 -11.1°
Reaches altitude 10° 05:50:57 10° 322° (NW) 2,457 4.1 -11.1°
Maximum altitude 05:56:17 45° 251° (WSW) 1,120 2.5 -10.3°
Drops below altitude 10° 06:01:35 10° 180° (S) 2,438 4.9 -9.5°
Sets 06:04:05 0° 174° (S) 3,368 5.8 -9.1°
